Location: Unspecified
(0.0000°N, 0.0000°E)
Time: 15:45:03
(UTC+02:00)

Iridium 39 - Visible Passes

Search period start: 01 September 2014 00:00
Search period end: 11 September 2014 00:00
Orbit: 776 x 779 km, 86.4° (Epoch: 31 August)

Date Brightness Start Highest point End Pass type
(mag) Time Alt. Az. Time Alt. Az. Time Alt. Az.
01 Sep 6.0 20:51:01 10° N 20:56:08 61° E 21:01:16 10° S visible
02 Sep 6.9 20:18:20 10° NNE 20:22:41 27° E 20:27:02 10° SSE visible
02 Sep 8.8 21:59:55 10° NW 22:03:06 16° W 22:06:18 10° SW visible
03 Sep 7.6 21:24:55 10° NNW 21:29:38 36° W 21:34:24 10° SSW visible
04 Sep 6.1 20:51:00 10° N 20:56:11 82° W 21:01:24 10° S visible
05 Sep 6.3 20:17:49 10° NNE 20:22:44 44° E 20:27:40 10° SSE visible
06 Sep 8.5 21:25:43 10° NW 21:29:42 23° W 21:33:43 10° SW visible
07 Sep 7.0 20:51:14 10° NNW 20:56:15 50° W 21:01:17 10° SSW visible
08 Sep 6.0 20:17:37 10° N 20:22:47 73° E 20:27:59 10° S visible
09 Sep 9.8 07:14:34 10° ESE 07:15:55 11° E 07:17:17 10° ENE visible
09 Sep 9.2 21:27:12 10° WNW 21:29:46 14° W 21:32:20 10° WSW visible
10 Sep 8.1 20:51:47 10° NNW 20:56:18 31° W 21:00:51 10° SSW visible
